When you browse on this site, cookies collect data to enhance your experience and personalize the content and advertising you see.
Visit our Privacy Policy to learn more. By continuing to use the site, you agree to this use of cookies and data.
  • In Latvia
  • List of Countries
  • For 7 days
  • Water Temperature
  • Satellite Maps
  • Weather Map
  • Weather Widgets
  • user-avatar
    Login

    Hourly Weather Klagenfurt

    Today, 18 July, Thursday

    Time Temperature Precipitation Wind Pressure Humidity
    00:00 +15°C° 0.4 mm 1 mps 688 mmHg 93%
    01:00 +13°C° 0.4 mm 0 mps 688 mmHg 94%
    02:00 +14°C° 0 mm 1 mps 688 mmHg 93%
    03:00 +14°C° 0 mm 1 mps 688 mmHg 93%
    04:00 +13°C° 0 mm 1 mps 687 mmHg 93%
    05:00 +13°C° 0 mm 0 mps 688 mmHg 91%
    06:00 +14°C° 0 mm 0 mps 688 mmHg 90%
    07:00 +15°C° 0 mm 0 mps 688 mmHg 89%
    08:00 +17°C° 0.5 mm 0 mps 688 mmHg 83%
    09:00 +19°C° 0.5 mm 0 mps 689 mmHg 77%
    10:00 +22°C° 0.5 mm 1 mps 689 mmHg 71%
    11:00 +23°C° 1.3 mm 1 mps 689 mmHg 71%
    12:00 +23°C° 1.3 mm 1 mps 689 mmHg 70%
    13:00 +23°C° 1.3 mm 1 mps 689 mmHg 70%
    14:00 +22°C° 0.5 mm 1 mps 689 mmHg 72%
    15:00 +22°C° 0.5 mm 1 mps 689 mmHg 74%
    16:00 +21°C° 0.5 mm 1 mps 689 mmHg 77%
    17:00 +20°C° 0.2 mm 1 mps 689 mmHg 80%
    18:00 +18°C° 0.2 mm 0 mps 689 mmHg 83%
    19:00 +17°C° 0.2 mm 0 mps 689 mmHg 86%
    20:00 +16°C° 0.1 mm 0 mps 689 mmHg 86%
    21:00 +15°C° 0.1 mm 0 mps 689 mmHg 87%
    22:00 +14°C° 0.1 mm 1 mps 689 mmHg 87%
    23:00 +14°C° 0.1 mm 1 mps 689 mmHg 87%

    Tomorrow, 19 July, Friday

    Time Temperature Precipitation Wind Pressure Humidity
    00:00 +14°C° 0.1 mm 1 mps 689 mmHg 86%
    01:00 +13°C° 0.1 mm 1 mps 689 mmHg 86%
    02:00 +13°C° 0 mm 1 mps 689 mmHg 86%
    03:00 +13°C° 0 mm 1 mps 689 mmHg 86%
    04:00 +13°C° 0 mm 1 mps 690 mmHg 86%
    05:00 +14°C° 0 mm 1 mps 690 mmHg 85%
    06:00 +14°C° 0 mm 0 mps 690 mmHg 83%
    07:00 +15°C° 0 mm 0 mps 691 mmHg 82%
    08:00 +18°C° 0.1 mm 0 mps 691 mmHg 73%
    09:00 +20°C° 0.1 mm 0 mps 692 mmHg 64%
    10:00 +25°C° 0.1 mm 1 mps 692 mmHg 54%
    11:00 +25°C° 0.1 mm 1 mps 692 mmHg 51%
    12:00 +26°C° 0.1 mm 1 mps 692 mmHg 48%
    13:00 +27°C° 0.1 mm 1 mps 692 mmHg 44%
    14:00 +26°C° 0 mm 1 mps 692 mmHg 46%
    15:00 +26°C° 0 mm 1 mps 692 mmHg 48%
    16:00 +26°C° 0 mm 2 mps 692 mmHg 50%
    17:00 +24°C° 0.1 mm 1 mps 691 mmHg 60%
    18:00 +22°C° 0.1 mm 1 mps 691 mmHg 70%
    19:00 +21°C° 0.1 mm 1 mps 691 mmHg 80%
    20:00 +19°C° 0 mm 1 mps 691 mmHg 82%
    21:00 +18°C° 0 mm 1 mps 691 mmHg 83%
    22:00 +16°C° 0 mm 1 mps 691 mmHg 85%
    23:00 +15°C° 0 mm 1 mps 691 mmHg 85%

    Day after tomorrow, 20 July, Saturday

    Time Temperature Precipitation Wind Pressure Humidity
    00:00 +15°C° 0 mm 1 mps 691 mmHg 85%
    01:00 +14°C° 0 mm 1 mps 691 mmHg 85%
    02:00 +14°C° 0 mm 1 mps 691 mmHg 85%
    03:00 +14°C° 0 mm 1 mps 691 mmHg 86%
    04:00 +14°C° 0 mm 1 mps 691 mmHg 87%
    05:00 +14°C° 0 mm 0 mps 691 mmHg 82%
    06:00 +16°C° 0 mm 0 mps 691 mmHg 78%
    07:00 +18°C° 0 mm 0 mps 692 mmHg 73%
    08:00 +20°C° 0 mm 0 mps 692 mmHg 66%
    09:00 +22°C° 0 mm 0 mps 693 mmHg 59%
    10:00 +26°C° 0 mm 1 mps 693 mmHg 51%
    11:00 +27°C° 0 mm 1 mps 694 mmHg 49%
    12:00 +28°C° 0 mm 1 mps 694 mmHg 47%
    13:00 +28°C° 0 mm 2 mps 694 mmHg 45%
    14:00 +28°C° 0 mm 2 mps 693 mmHg 47%
    15:00 +28°C° 0 mm 2 mps 693 mmHg 49%
    16:00 +27°C° 0 mm 2 mps 693 mmHg 51%
    17:00 +26°C° 0 mm 2 mps 693 mmHg 61%
    18:00 +24°C° 0 mm 2 mps 693 mmHg 71%
    19:00 +22°C° 0 mm 1 mps 693 mmHg 81%
    20:00 +21°C° 0 mm 1 mps 693 mmHg 84%
    21:00 +20°C° 0 mm 1 mps 693 mmHg 87%
    22:00 +19°C° 0 mm 1 mps 693 mmHg 90%
    23:00 +18°C° 0 mm 1 mps 693 mmHg 90%

    21 July, Sunday

    Time Temperature Precipitation Wind Pressure Humidity
    00:00 +18°C° 0 mm 1 mps 693 mmHg 90%
    01:00 +16°C° 0 mm 1 mps 693 mmHg 89%
    02:00 +16°C° 0 mm 1 mps 693 mmHg 89%
    03:00 +16°C° 0 mm 1 mps 693 mmHg 89%
    04:00 +16°C° 0 mm 1 mps 693 mmHg 89%
    05:00 +18°C° 0 mm 1 mps 693 mmHg 84%
    06:00 +18°C° 0 mm 0 mps 693 mmHg 80%
    07:00 +19°C° 0 mm 0 mps 694 mmHg 75%
    08:00 +22°C° 0 mm 0 mps 695 mmHg 67%
    09:00 +24°C° 0 mm 0 mps 695 mmHg 60%
    10:00 +29°C° 0 mm 1 mps 696 mmHg 52%
    11:00 +30°C° 0 mm 1 mps 696 mmHg 48%
    12:00 +30°C° 0 mm 1 mps 696 mmHg 43%
    13:00 +31°C° 0 mm 1 mps 696 mmHg 38%
    14:00 +31°C° 0 mm 1 mps 696 mmHg 40%
    15:00 +30°C° 0 mm 1 mps 696 mmHg 42%
    16:00 +30°C° 0 mm 1 mps 696 mmHg 44%
    17:00 +28°C° 0.3 mm 1 mps 695 mmHg 56%
    18:00 +26°C° 0.3 mm 1 mps 695 mmHg 68%
    19:00 +24°C° 0.3 mm 1 mps 695 mmHg 80%
    20:00 +22°C° 0.2 mm 1 mps 695 mmHg 83%
    21:00 +21°C° 0.2 mm 1 mps 695 mmHg 86%
    22:00 +20°C° 0.2 mm 1 mps 695 mmHg 88%
    23:00 +19°C° 0 mm 1 mps 695 mmHg 89%

    22 July, Monday

    Time Temperature Precipitation Wind Pressure Humidity
    00:00 +19°C° 0 mm 1 mps 695 mmHg 90%
    01:00 +18°C° 0 mm 1 mps 694 mmHg 91%
    02:00 +18°C° 0 mm 1 mps 694 mmHg 91%
    03:00 +18°C° 0 mm 1 mps 694 mmHg 91%
    04:00 +18°C° 0 mm 1 mps 694 mmHg 91%
    05:00 +17°C° 0 mm 0 mps 694 mmHg 88%
    06:00 +18°C° 0 mm 0 mps 694 mmHg 85%
    07:00 +20°C° 0 mm 0 mps 695 mmHg 82%
    08:00 +22°C° 0 mm 0 mps 695 mmHg 73%
    09:00 +26°C° 0 mm 1 mps 695 mmHg 63%
    10:00 +29°C° 0 mm 1 mps 696 mmHg 54%
    11:00 +29°C° 0.4 mm 1 mps 696 mmHg 53%
    12:00 +30°C° 0.4 mm 1 mps 696 mmHg 52%
    13:00 +31°C° 0.4 mm 1 mps 695 mmHg 52%
    14:00 +30°C° 0.2 mm 1 mps 695 mmHg 51%
    15:00 +30°C° 0.2 mm 1 mps 695 mmHg 50%
    16:00 +30°C° 0.2 mm 1 mps 695 mmHg 50%
    17:00 +27°C° 2.6 mm 1 mps 694 mmHg 62%
    18:00 +25°C° 2.6 mm 2 mps 694 mmHg 75%
    19:00 +21°C° 2.6 mm 2 mps 693 mmHg 88%
    20:00 +20°C° 0.7 mm 2 mps 693 mmHg 88%
    21:00 +20°C° 0.7 mm 1 mps 693 mmHg 88%
    22:00 +19°C° 0.7 mm 1 mps 693 mmHg 88%
    23:00 +19°C° 0 mm 1 mps 693 mmHg 89%

    23 July, Tuesday

    Time Temperature Precipitation Wind Pressure Humidity
    00:00 +18°C° 0 mm 1 mps 693 mmHg 89%
    01:00 +18°C° 0 mm 1 mps 693 mmHg 90%
    02:00 +18°C° 0 mm 1 mps 693 mmHg 91%
    03:00 +16°C° 0 mm 1 mps 693 mmHg 92%
    04:00 +16°C° 0 mm 1 mps 693 mmHg 94%
    05:00 +18°C° 0 mm 1 mps 693 mmHg 93%
    06:00 +17°C° 0 mm 0 mps 693 mmHg 92%
    07:00 +18°C° 0 mm 0 mps 694 mmHg 90%
    08:00 +22°C° 0 mm 1 mps 694 mmHg 83%
    09:00 +23°C° 0 mm 1 mps 694 mmHg 75%
    10:00 +25°C° 0 mm 1 mps 694 mmHg 68%
    11:00 +26°C° 0.1 mm 1 mps 694 mmHg 63%
    12:00 +27°C° 0.1 mm 1 mps 694 mmHg 57%
    13:00 +29°C° 0.1 mm 1 mps 694 mmHg 52%
    14:00 +28°C° 0.1 mm 1 mps 694 mmHg 53%
    15:00 +28°C° 0.1 mm 2 mps 694 mmHg 54%
    16:00 +28°C° 0.1 mm 2 mps 693 mmHg 55%
    17:00 +26°C° 0.1 mm 2 mps 693 mmHg 64%
    18:00 +24°C° 0.1 mm 1 mps 693 mmHg 73%
    19:00 +23°C° 0.1 mm 1 mps 693 mmHg 82%
    20:00 +21°C° 0 mm 1 mps 693 mmHg 84%
    21:00 +20°C° 0 mm 1 mps 693 mmHg 86%
    22:00 +19°C° 0 mm 1 mps 693 mmHg 88%
    23:00 +17°C° 0 mm 0 mps 693 mmHg 88%
    Show more